Station Historical Data
Daily Summary for August 23, 2017 Units:  Metric    English   Both
« Previous Day
Next Day »
Daily Weekly Monthly Yearly Custom
  High: Low: Average:
Temperature: 31.1 °C 22.4 °C 25.9 °C
Dew Point: 22.3 °C 18 °C 20.7 °C
Humidity: 89% 54% 74%
Wind Speed: 1.6km/h 0km/h 0.2km/h
Wind Gust: 9.7km/h - -
Wind- - WSW
Pressure: 1015.8 hPa 1011.1 hPa -
Precipitation: 0 mm    
Historical Graphs
 
 
Tabular Data for August 23, 2017
Time Temperature Dew Point Pressure Wind Wind Speed Wind Gust Humidity Rainfall Rate (Hourly) Conditions
00:00 25 °C 21.9 °C 1015.8 hPa Calm     83% 0 mm CLR
00:05 25 °C 21.9 °C 1015.8 hPa Calm     83% 0 mm CLR
00:10 24.9 °C 21.8 °C 1015.5 hPa Calm     83% 0 mm CLR
00:15 24.8 °C 21.9 °C 1015.5 hPa Calm   1.6 km/h 84% 0 mm CLR
00:20 24.8 °C 21.9 °C 1015.5 hPa Calm     84% 0 mm CLR
00:25 24.7 °C 21.8 °C 1015.5 hPa Calm     84% 0 mm CLR
00:30 24.7 °C 21.8 °C 1015.5 hPa Calm     84% 0 mm CLR
00:40 24.7 °C 21.8 °C 1015.5 hPa Calm     84% 0 mm CLR
00:45 24.7 °C 21.8 °C 1015.5 hPa Calm     84% 0 mm CLR
00:50 24.7 °C 21.8 °C 1015.1 hPa Calm     84% 0 mm CLR
00:55 24.7 °C 21.8 °C 1015.1 hPa Calm     84% 0 mm CLR
01:00 24.6 °C 21.7 °C 1015.1 hPa Calm     84% 0 mm CLR
01:05 24.6 °C 21.7 °C 1015.1 hPa Calm     84% 0 mm CLR
01:10 24.6 °C 21.7 °C 1015.5 hPa Calm     84% 0 mm CLR
01:15 24.6 °C 21.7 °C 1015.1 hPa Calm     84% 0 mm CLR
01:20 24.5 °C 21.4 °C 1015.1 hPa Calm   1.6 km/h 83% 0 mm CLR
01:25 24.5 °C 21.4 °C 1015.1 hPa Calm     83% 0 mm CLR
01:30 24.5 °C 21.2 °C 1015.1 hPa Calm     82% 0 mm CLR
01:35 24.5 °C 21.2 °C 1014.8 hPa Calm   1.6 km/h 82% 0 mm CLR
01:40 24.5 °C 21.2 °C 1014.8 hPa Calm     82% 0 mm CLR
01:45 24.4 °C 21.2 °C 1014.4 hPa Calm     82% 0 mm CLR
01:50 24.4 °C 21.1 °C 1014.8 hPa Calm     82% 0 mm CLR
01:55 24.4 °C 21.1 °C 1014.4 hPa Calm   1.6 km/h 82% 0 mm CLR
02:00 24.3 °C 21 °C 1014.4 hPa Calm   1.6 km/h 82% 0 mm CLR
02:05 24.3 °C 21 °C 1014.4 hPa Calm     82% 0 mm CLR
02:10 24.2 °C 20.9 °C 1014.4 hPa Calm     82% 0 mm CLR
02:15 24.2 °C 20.9 °C 1014.4 hPa Calm     82% 0 mm CLR
02:20 24.1 °C 21.1 °C 1014.4 hPa Calm     83% 0 mm CLR
02:25 24.1 °C 21 °C 1014.1 hPa Calm     83% 0 mm CLR
02:30 24 °C 20.9 °C 1014.1 hPa Calm     83% 0 mm CLR
02:35 23.9 °C 20.9 °C 1014.1 hPa Calm     83% 0 mm CLR
02:40 23.9 °C 20.8 °C 1014.1 hPa Calm     83% 0 mm CLR
02:45 23.8 °C 20.9 °C 1014.1 hPa Calm     84% 0 mm CLR
02:50 23.8 °C 20.9 °C 1014.1 hPa Calm     84% 0 mm CLR
02:55 23.7 °C 20.8 °C 1014.4 hPa Calm     84% 0 mm CLR
03:00 23.7 °C 21 °C 1014.1 hPa Calm     85% 0 mm CLR
03:10 23.6 °C 20.9 °C 1014.4 hPa Calm     85% 0 mm CLR
03:15 23.5 °C 21 °C 1014.4 hPa Calm     86% 0 mm CLR
03:20 23.4 °C 21 °C 1014.4 hPa Calm     86% 0 mm FEW
03:25 23.4 °C 20.9 °C 1014.4 hPa Calm     86% 0 mm FEW
03:30 23.4 °C 20.9 °C 1014.1 hPa Calm     86% 0 mm FEW
03:45 23.4 °C 20.9 °C 1014.1 hPa Calm     86% 0 mm FEW
03:50 23.3 °C 20.9 °C 1014.1 hPa Calm     86% 0 mm FEW
03:55 23.3 °C 20.8 °C 1014.1 hPa Calm     86% 0 mm FEW
04:00 23.3 °C 20.8 °C 1013.8 hPa Calm     86% 0 mm FEW
04:10 23.3 °C 20.8 °C 1013.8 hPa Calm     86% 0 mm FEW
04:15 23.2 °C 20.7 °C 1014.1 hPa Calm     86% 0 mm FEW
04:20 23.2 °C 20.7 °C 1014.1 hPa Calm     86% 0 mm FEW
04:25 23.2 °C 20.7 °C 1014.1 hPa Calm     86% 0 mm FEW
04:30 23.2 °C 20.7 °C 1014.1 hPa Calm     86% 0 mm FEW
04:35 23.2 °C 20.7 °C 1014.1 hPa Calm     86% 0 mm FEW
04:40 23.2 °C 20.7 °C 1014.1 hPa Calm     86% 0 mm FEW
04:45 23.1 °C 20.7 °C 1014.1 hPa Calm     86% 0 mm FEW
04:50 23.1 °C 20.7 °C 1013.8 hPa Calm     86% 0 mm FEW
04:55 23.1 °C 20.6 °C 1014.1 hPa Calm     86% 0 mm FEW
05:00 23.1 °C 20.8 °C 1013.8 hPa Calm     87% 0 mm FEW
05:05 23 °C 20.7 °C 1013.8 hPa Calm     87% 0 mm FEW
05:10 22.9 °C 20.7 °C 1013.8 hPa Calm     87% 0 mm FEW
05:15 22.9 °C 20.6 °C 1013.8 hPa Calm     87% 0 mm FEW
05:20 22.9 °C 20.6 °C 1013.8 hPa Calm     87% 0 mm CLR
05:25 22.8 °C 20.6 °C 1013.8 hPa Calm     87% 0 mm CLR
05:30 22.8 °C 20.6 °C 1013.8 hPa Calm     87% 0 mm CLR
05:35 22.7 °C 20.4 °C 1013.8 hPa Calm     87% 0 mm CLR
05:40 22.7 °C 20.6 °C 1013.8 hPa Calm     88% 0 mm CLR
05:45 22.7 °C 20.6 °C 1013.8 hPa Calm     88% 0 mm CLR
05:50 22.6 °C 20.5 °C 1013.8 hPa Calm     88% 0 mm CLR
05:55 22.6 °C 20.4 °C 1013.8 hPa Calm     88% 0 mm CLR
06:00 22.6 °C 20.4 °C 1013.8 hPa Calm     88% 0 mm CLR
06:05 22.5 °C 20.4 °C 1013.8 hPa Calm     88% 0 mm CLR
06:10 22.5 °C 20.6 °C 1014.1 hPa Calm     89% 0 mm CLR
06:15 22.4 °C 20.6 °C 1014.1 hPa Calm     89% 0 mm CLR
06:20 22.4 °C 20.6 °C 1013.8 hPa Calm     89% 0 mm CLR
06:25 22.4 °C 20.6 °C 1014.1 hPa Calm   1.6 km/h 89% 0 mm CLR
06:30 22.6 °C 20.7 °C 1014.1 hPa Calm   1.6 km/h 89% 0 mm CLR
06:40 22.8 °C 20.9 °C 1014.1 hPa Calm     89% 0 mm CLR
06:45 22.9 °C 20.8 °C 1014.1 hPa Calm   1.6 km/h 88% 0 mm CLR
06:55 23.1 °C 20.9 °C 1013.8 hPa Calm     88% 0 mm CLR
07:00 23.1 °C 20.9 °C 1013.8 hPa Calm     88% 0 mm CLR
07:10 22.9 °C 20.8 °C 1014.1 hPa Calm     88% 0 mm CLR
07:15 22.9 °C 20.8 °C 1014.1 hPa Calm     88% 0 mm CLR
07:20 22.8 °C 20.7 °C 1014.1 hPa Calm     88% 0 mm SCT
07:25 22.8 °C 20.9 °C 1014.1 hPa Calm     89% 0 mm SCT
07:30 22.8 °C 20.9 °C 1014.4 hPa Calm     89% 0 mm SCT
07:35 22.8 °C 20.9 °C 1014.1 hPa Calm     89% 0 mm SCT
07:40 22.8 °C 20.9 °C 1014.1 hPa Calm   1.6 km/h 89% 0 mm SCT
07:45 22.9 °C 20.9 °C 1014.1 hPa Calm   1.6 km/h 89% 0 mm SCT
07:50 22.9 °C 21.1 °C 1014.1 hPa Calm     89% 0 mm SCT
08:00 23.1 °C 21.2 °C 1014.1 hPa Calm   1.6 km/h 89% 0 mm SCT
08:05 23.2 °C 21.3 °C 1014.1 hPa Calm   1.6 km/h 89% 0 mm SCT
08:10 23.3 °C 21.4 °C 1014.1 hPa Calm     89% 0 mm SCT
08:15 23.5 °C 21.4 °C 1014.1 hPa Calm   1.6 km/h 88% 0 mm SCT
08:20 23.7 °C 21.4 °C 1014.1 hPa Calm   1.6 km/h 87% 0 mm SCT
08:25 23.7 °C 21.4 °C 1014.1 hPa Calm     87% 0 mm SCT
08:30 23.8 °C 21.6 °C 1014.1 hPa Calm   1.6 km/h 87% 0 mm SCT
08:35 24 °C 21.5 °C 1014.1 hPa West 1.6 km/h 4.8 km/h 86% 0 mm SCT
08:40 24.1 °C 21.6 °C 1014.1 hPa Calm   4.8 km/h 86% 0 mm SCT
08:45 24.2 °C 21.7 °C 1014.1 hPa Calm   1.6 km/h 86% 0 mm SCT
08:50 24.3 °C 21.6 °C 1014.1 hPa Calm     85% 0 mm SCT
08:55 24.3 °C 21.7 °C 1014.1 hPa Calm   1.6 km/h 85% 0 mm SCT
09:00 24.4 °C 21.8 °C 1014.1 hPa Calm   1.6 km/h 85% 0 mm SCT
09:10 24.7 °C 21.8 °C 1014.1 hPa Calm   3.2 km/h 84% 0 mm SCT
09:15 24.8 °C 21.8 °C 1014.1 hPa Calm   3.2 km/h 83% 0 mm SCT
09:20 25 °C 21.9 °C 1014.1 hPa Calm   3.2 km/h 83% 0 mm SCT
09:25 25.2 °C 21.9 °C 1014.1 hPa WSW 1.6 km/h 3.2 km/h 82% 0 mm SCT
09:30 25.2 °C 21.9 °C 1014.1 hPa Calm   3.2 km/h 82% 0 mm SCT
09:35 25.3 °C 21.8 °C 1014.1 hPa Calm   1.6 km/h 81% 0 mm SCT
09:40 25.4 °C 21.9 °C 1014.1 hPa Calm     81% 0 mm SCT
09:45 25.5 °C 21.8 °C 1014.1 hPa Calm   1.6 km/h 80% 0 mm SCT
09:50 25.8 °C 22.1 °C 1014.1 hPa Calm   1.6 km/h 80% 0 mm SCT
09:55 26 °C 22.1 °C 1014.1 hPa Calm   9.7 km/h 79% 0 mm SCT
10:00 26.1 °C 22 °C 1014.1 hPa Calm   3.2 km/h 78% 0 mm SCT
10:05 26.1 °C 22 °C 1014.1 hPa Calm   4.8 km/h 78% 0 mm SCT
10:15 26.3 °C 22 °C 1014.4 hPa WSW 1.6 km/h 3.2 km/h 77% 0 mm SCT
10:20 26.2 °C 21.9 °C 1014.4 hPa Calm   1.6 km/h 77% 0 mm BKN
10:25 26.2 °C 21.9 °C 1014.4 hPa Calm   3.2 km/h 77% 0 mm BKN
10:30 26.2 °C 21.9 °C 1014.4 hPa Calm   4.8 km/h 77% 0 mm BKN
10:35 26.3 °C 22 °C 1014.4 hPa Calm   4.8 km/h 77% 0 mm BKN
10:40 26.5 °C 22.3 °C 1014.4 hPa Calm   3.2 km/h 78% 0 mm BKN
10:45 26.7 °C 22.2 °C 1014.4 hPa Calm   4.8 km/h 76% 0 mm BKN
10:50 26.8 °C 22 °C 1014.8 hPa Calm   3.2 km/h 75% 0 mm BKN
10:55 26.7 °C 21.9 °C 1014.8 hPa Calm   1.6 km/h 75% 0 mm BKN
11:00 26.8 °C 22 °C 1014.8 hPa Calm   1.6 km/h 75% 0 mm BKN
11:05 26.8 °C 22 °C 1014.8 hPa Calm   1.6 km/h 75% 0 mm BKN
11:10 26.8 °C 21.8 °C 1014.8 hPa Calm   3.2 km/h 74% 0 mm BKN
11:15 26.9 °C 22.2 °C 1014.4 hPa Calm   1.6 km/h 75% 0 mm BKN
11:20 27.1 °C 21.8 °C 1014.4 hPa Calm   3.2 km/h 73% 0 mm BKN
11:25 27.2 °C 22.1 °C 1014.8 hPa Calm   3.2 km/h 74% 0 mm BKN
11:30 27.2 °C 21.9 °C 1014.4 hPa Calm   3.2 km/h 73% 0 mm BKN
11:35 27.4 °C 21.9 °C 1014.4 hPa WSW 1.6 km/h 4.8 km/h 72% 0 mm BKN
11:40 27.4 °C 21.9 °C 1014.4 hPa Calm   4.8 km/h 72% 0 mm BKN
11:45 27.6 °C 21.7 °C 1014.4 hPa West 1.6 km/h 8 km/h 70% 0 mm BKN
11:50 27.7 °C 21.7 °C 1014.4 hPa Calm   3.2 km/h 70% 0 mm BKN
11:55 28.1 °C 21.9 °C 1014.4 hPa Calm   3.2 km/h 69% 0 mm BKN
12:00 28.3 °C 22.1 °C 1014.4 hPa Calm   3.2 km/h 69% 0 mm BKN
12:05 28.3 °C 22.1 °C 1014.4 hPa Calm   1.6 km/h 69% 0 mm BKN
12:10 28.2 °C 22 °C 1014.4 hPa NNW 1.6 km/h 4.8 km/h 69% 0 mm BKN
12:15 28.4 °C 22.2 °C 1014.4 hPa Calm   1.6 km/h 69% 0 mm BKN
12:20 28.9 °C 21.9 °C 1014.1 hPa Calm   8 km/h 66% 0 mm BKN
12:25 28.9 °C 21.7 °C 1014.4 hPa Calm   4.8 km/h 65% 0 mm BKN
12:30 29.1 °C 22.1 °C 1014.1 hPa Calm   1.6 km/h 66% 0 mm BKN
12:40 29.4 °C 21.9 °C 1014.1 hPa Calm   4.8 km/h 64% 0 mm BKN
12:45 29.3 °C 21.2 °C 1014.1 hPa South 1.6 km/h 8 km/h 62% 0 mm BKN
12:50 29.2 °C 21.9 °C 1014.1 hPa SSW 1.6 km/h 8 km/h 65% 0 mm SCT
12:55 29.2 °C 21.4 °C 1014.1 hPa Calm   8 km/h 63% 0 mm SCT
13:00 29.3 °C 21.8 °C 1014.1 hPa Calm   3.2 km/h 64% 0 mm SCT
13:05 29.8 °C 21.7 °C 1013.8 hPa Calm   3.2 km/h 62% 0 mm SCT
13:10 30 °C 21.9 °C 1014.1 hPa Calm   4.8 km/h 62% 0 mm SCT
13:15 30.4 °C 21.8 °C 1014.1 hPa SSW 1.6 km/h 4.8 km/h 60% 0 mm SCT
13:20 30.6 °C 21.7 °C 1014.1 hPa Calm   4.8 km/h 59% 0 mm BKN
13:25 31.1 °C 21.9 °C 1013.8 hPa Calm   4.8 km/h 58% 0 mm BKN
13:30 31.1 °C 21.3 °C 1013.8 hPa WNW 1.6 km/h 8 km/h 56% 0 mm BKN
13:35 30.9 °C 21.2 °C 1013.8 hPa West 1.6 km/h 4.8 km/h 56% 0 mm BKN
13:40 30.9 °C 21.7 °C 1013.8 hPa Calm   3.2 km/h 58% 0 mm BKN
13:45 30.9 °C 21.1 °C 1013.8 hPa Calm   4.8 km/h 56% 0 mm BKN
13:50 30.7 °C 21.2 °C 1013.4 hPa Calm   1.6 km/h 57% 0 mm BKN
13:55 30.6 °C 21.4 °C 1013.4 hPa Calm   3.2 km/h 58% 0 mm BKN
14:00 30.6 °C 21.1 °C 1013.4 hPa NW 1.6 km/h 4.8 km/h 57% 0 mm BKN
14:05 30.8 °C 21.6 °C 1013.4 hPa WNW 1.6 km/h 3.2 km/h 58% 0 mm BKN
14:10 30.9 °C 21.7 °C 1013.4 hPa Calm   9.7 km/h 58% 0 mm BKN
14:15 31.1 °C 21 °C 1013.4 hPa Calm   8 km/h 55% 0 mm BKN
14:20 31 °C 20.6 °C 1013.4 hPa SSW 1.6 km/h 8 km/h 54% 0 mm BKN
14:25 30.8 °C 20.9 °C 1013.4 hPa Calm   3.2 km/h 56% 0 mm BKN
14:30 30.7 °C 20.9 °C 1013.1 hPa Calm     56% 0 mm BKN
14:40 30.8 °C 20.8 °C 1013.1 hPa Calm   1.6 km/h 55% 0 mm BKN
14:45 30.6 °C 20.5 °C 1013.1 hPa ESE 1.6 km/h 4.8 km/h 55% 0 mm BKN
14:50 30.1 °C 21.2 °C 1013.1 hPa Calm   1.6 km/h 59% 0 mm BKN
14:55 29.9 °C 20.8 °C 1013.1 hPa Calm   3.2 km/h 58% 0 mm BKN
15:00 29.9 °C 21 °C 1013.1 hPa Calm   1.6 km/h 59% 0 mm BKN
15:05 30 °C 21.1 °C 1012.8 hPa West 1.6 km/h 8 km/h 59% 0 mm BKN
15:10 30.1 °C 20.9 °C 1012.8 hPa Calm   4.8 km/h 58% 0 mm BKN
15:15 30.2 °C 20.4 °C 1012.8 hPa Calm   3.2 km/h 56% 0 mm BKN
15:20 30.1 °C 20.7 °C 1012.8 hPa Calm   1.6 km/h 57% 0 mm BKN
15:25 29.8 °C 20.4 °C 1012.8 hPa Calm   3.2 km/h 57% 0 mm BKN
15:30 29.6 °C 20.2 °C 1012.8 hPa Calm   1.6 km/h 57% 0 mm BKN
15:40 29.6 °C 20.7 °C 1012.4 hPa Calm   1.6 km/h 59% 0 mm BKN
15:45 29.6 °C 20.7 °C 1012.4 hPa Calm   1.6 km/h 59% 0 mm BKN
15:50 29.8 °C 20.7 °C 1012.4 hPa Calm   4.8 km/h 58% 0 mm BKN
15:55 29.9 °C 20.4 °C 1012.4 hPa Calm   1.6 km/h 57% 0 mm BKN
16:00 29.9 °C 20.4 °C 1012.1 hPa Calm   3.2 km/h 57% 0 mm BKN
16:05 29.9 °C 20.5 °C 1012.1 hPa Calm   3.2 km/h 57% 0 mm BKN
16:10 29.9 °C 20.5 °C 1012.1 hPa Calm   1.6 km/h 57% 0 mm BKN
16:15 29.8 °C 19.8 °C 1012.1 hPa Calm   4.8 km/h 55% 0 mm BKN
16:20 29.8 °C 20.1 °C 1011.7 hPa Calm   4.8 km/h 56% 0 mm BKN
16:30 29.9 °C 20.4 °C 1011.7 hPa Calm   1.6 km/h 57% 0 mm BKN
16:40 29.8 °C 19.8 °C 1011.7 hPa Calm   1.6 km/h 55% 0 mm BKN
16:45 29.8 °C 20.1 °C 1011.7 hPa Calm   3.2 km/h 56% 0 mm BKN
16:50 29.7 °C 19.7 °C 1011.4 hPa Calm   3.2 km/h 55% 0 mm BKN
16:55 29.7 °C 20.3 °C 1011.4 hPa Calm   1.6 km/h 57% 0 mm BKN
17:00 29.6 °C 19.9 °C 1011.4 hPa Calm   1.6 km/h 56% 0 mm BKN
17:05 29.5 °C 19.8 °C 1011.4 hPa Calm   3.2 km/h 56% 0 mm BKN
17:10 29.4 °C 20.3 °C 1011.4 hPa Calm     58% 0 mm BKN
17:15 29.3 °C 19.8 °C 1011.4 hPa Calm   1.6 km/h 57% 0 mm BKN
17:20 29.3 °C 19.9 °C 1011.4 hPa Calm   1.6 km/h 57% 0 mm SCT
17:25 29.6 °C 20.2 °C 1011.4 hPa Calm   1.6 km/h 57% 0 mm SCT
17:30 29.9 °C 20.2 °C 1011.4 hPa Calm   1.6 km/h 56% 0 mm SCT
17:40 30 °C 19.9 °C 1011.4 hPa Calm   1.6 km/h 55% 0 mm SCT
17:45 29.8 °C 20.3 °C 1011.4 hPa Calm   1.6 km/h 57% 0 mm SCT
17:50 29.6 °C 20.4 °C 1011.4 hPa Calm   1.6 km/h 58% 0 mm SCT
17:55 29.3 °C 19.9 °C 1011.4 hPa Calm   3.2 km/h 57% 0 mm SCT
18:00 29.1 °C 20 °C 1011.4 hPa Calm   1.6 km/h 58% 0 mm SCT
18:10 28.7 °C 19.6 °C 1011.4 hPa Calm   1.6 km/h 58% 0 mm SCT
18:15 28.6 °C 19.8 °C 1011.4 hPa Calm   1.6 km/h 59% 0 mm SCT
18:20 28.3 °C 19.6 °C 1011.1 hPa Calm     59% 0 mm FEW
18:25 28.2 °C 19.7 °C 1011.4 hPa Calm     60% 0 mm FEW
18:30 28.1 °C 19.9 °C 1011.4 hPa Calm     61% 0 mm FEW
18:40 27.9 °C 20.2 °C 1011.4 hPa Calm     63% 0 mm FEW
18:45 27.8 °C 19.8 °C 1011.1 hPa Calm     62% 0 mm FEW
18:50 27.7 °C 19.8 °C 1011.1 hPa Calm     62% 0 mm FEW
18:55 27.6 °C 19.4 °C 1011.1 hPa Calm     61% 0 mm FEW
19:00 27.6 °C 19.9 °C 1011.4 hPa Calm     63% 0 mm FEW
19:10 27.4 °C 19.8 °C 1011.4 hPa Calm   1.6 km/h 63% 0 mm FEW
19:15 27.3 °C 19.9 °C 1011.4 hPa Calm     64% 0 mm FEW
19:20 27.3 °C 19.9 °C 1011.4 hPa Calm     64% 0 mm FEW
19:25 27.2 °C 20.3 °C 1011.4 hPa Calm     66% 0 mm FEW
19:30 27.1 °C 19.9 °C 1011.4 hPa Calm     65% 0 mm FEW
19:35 27.1 °C 19.4 °C 1011.4 hPa Calm   1.6 km/h 63% 0 mm FEW
19:40 27.2 °C 19.5 °C 1011.1 hPa Calm     63% 0 mm FEW
19:45 27.1 °C 19.7 °C 1011.1 hPa Calm     64% 0 mm FEW
19:50 27.1 °C 19.7 °C 1011.1 hPa Calm     64% 0 mm FEW
19:55 26.9 °C 19.5 °C 1011.4 hPa Calm     64% 0 mm FEW
20:00 26.7 °C 19.6 °C 1011.4 hPa Calm     65% 0 mm FEW
20:05 26.6 °C 19.7 °C 1011.4 hPa Calm     66% 0 mm FEW
20:10 26.5 °C 19.6 °C 1011.4 hPa Calm   1.6 km/h 66% 0 mm FEW
20:15 26.4 °C 19.5 °C 1011.4 hPa Calm     66% 0 mm FEW
20:20 26.2 °C 19.4 °C 1011.4 hPa Calm     66% 0 mm FEW
20:25 26.1 °C 19.7 °C 1011.4 hPa Calm     68% 0 mm FEW
20:30 25.9 °C 19.3 °C 1011.4 hPa Calm     67% 0 mm FEW
20:35 25.8 °C 19.2 °C 1011.4 hPa Calm     67% 0 mm FEW
20:40 25.6 °C 19.3 °C 1011.4 hPa Calm     68% 0 mm FEW
20:45 25.5 °C 19.2 °C 1011.4 hPa Calm     68% 0 mm FEW
20:50 25.4 °C 19.1 °C 1011.4 hPa Calm     68% 0 mm FEW
20:55 25.3 °C 18.9 °C 1011.7 hPa Calm     68% 0 mm FEW
21:00 25.2 °C 19.1 °C 1011.7 hPa Calm     69% 0 mm FEW
21:05 25.1 °C 19.2 °C 1011.7 hPa Calm     70% 0 mm FEW
21:10 24.9 °C 19.1 °C 1011.7 hPa Calm     70% 0 mm FEW
21:15 24.8 °C 19 °C 1011.7 hPa Calm     70% 0 mm FEW
21:20 24.8 °C 19.2 °C 1011.7 hPa Calm     71% 0 mm FEW
21:25 24.7 °C 19.1 °C 1011.7 hPa Calm     71% 0 mm FEW
21:30 24.6 °C 19.2 °C 1012.1 hPa Calm     72% 0 mm FEW
21:35 24.4 °C 19.2 °C 1012.1 hPa Calm     73% 0 mm FEW
21:40 24.3 °C 19.3 °C 1012.1 hPa Calm     74% 0 mm FEW
21:45 24.2 °C 19.4 °C 1012.1 hPa Calm     75% 0 mm FEW
21:50 24.1 °C 19.3 °C 1012.4 hPa Calm     75% 0 mm FEW
21:55 23.9 °C 19.2 °C 1012.4 hPa Calm     75% 0 mm FEW
22:00 23.8 °C 19.2 °C 1012.4 hPa Calm     75% 0 mm FEW
22:05 23.7 °C 19 °C 1012.4 hPa Calm     75% 0 mm FEW
22:10 23.6 °C 19.1 °C 1012.4 hPa Calm     76% 0 mm FEW
22:15 23.6 °C 19.3 °C 1012.4 hPa Calm     77% 0 mm FEW
22:20 23.4 °C 19.4 °C 1012.4 hPa Calm     78% 0 mm CLR
22:25 23.3 °C 19.3 °C 1012.4 hPa Calm     78% 0 mm CLR
22:30 23.3 °C 19.1 °C 1012.4 hPa Calm     77% 0 mm CLR
22:35 23.3 °C 19 °C 1012.8 hPa Calm     77% 0 mm CLR
22:40 23.3 °C 19 °C 1012.8 hPa Calm   1.6 km/h 77% 0 mm CLR
22:45 23.2 °C 18.9 °C 1012.8 hPa Calm     77% 0 mm CLR
22:50 23.1 °C 18.7 °C 1012.4 hPa Calm     76% 0 mm CLR
22:55 23.1 °C 18.7 °C 1012.8 hPa Calm     76% 0 mm CLR
23:00 23.1 °C 18.8 °C 1012.8 hPa Calm     77% 0 mm CLR
23:05 23.1 °C 18.6 °C 1012.8 hPa Calm     76% 0 mm CLR
23:10 22.9 °C 18.5 °C 1012.8 hPa Calm     76% 0 mm CLR
23:15 22.9 °C 18.4 °C 1012.8 hPa Calm     76% 0 mm CLR
23:20 22.8 °C 18.6 °C 1012.8 hPa Calm     77% 0 mm CLR
23:25 22.7 °C 18.3 °C 1012.8 hPa Calm     76% 0 mm CLR
23:35 22.6 °C 18.4 °C 1012.4 hPa Calm     77% 0 mm CLR
23:40 22.6 °C 18.1 °C 1012.8 hPa Calm   1.6 km/h 76% 0 mm CLR
23:45 22.5 °C 18.1 °C 1012.8 hPa Calm     76% 0 mm CLR
23:50 22.4 °C 18 °C 1012.8 hPa Calm     76% 0 mm CLR
23:55 22.4 °C 18 °C 1012.8 hPa Calm   1.6 km/h 76% 0 mm CLR
Piedmont Bend
Compliments of Weather Underground - 2 mb